Location: Fours
(44.3167°N, 6.7000°E)
Time: 10:11:08
(UTC+00:00)

CZ-4 R/B - Pass Details

Date: 30 November 2020
Orbit: 532 x 598 km, 97.7° (Epoch: 25 January)

Event Time Altitude Azimuth Distance (km) Brightness Sun altitude
Rises 19:09:27 0° 205° (SSW) 2,707 5.1 -34.0°
Enters shadow 19:10:20 - 210° (SSW) 2,400 4.9 -34.2°
Exits shadow 19:16:26 14° 297° (WNW) 1,617 4.3 -35.3°
Drops below altitude 10° 19:17:31 10° 310° (NW) 1,870 4.5 -35.4°
Sets 19:20:19 0° 331° (NNW) 2,788 5.3 -35.9°
